Theta_e
269 269 268 268 268 268 268 269 269 270 270 270 269 270 269 270 270 270 271 271 272 272 272 273 274 276 276 277 277 277 278 278 279 279 280 280 280 280 281 281 280 280 281 281 282 283 283 284 284 284 284 283 284 285 285 285 285 285 285 284 283 283 283 282 281 281 277 276 276 276 276 277 276 278 278 279 279 281 283 281 281 282 282 282 282
268 267 268 268 268 269 269 269 269 269 269 269 269 269 268 269 269 269 269 269 270 271 272 273 275 277 277 277 277 279 279 280 280 281 281 281 280 281 282 282 281 280 280 280 280 282 284 283 283 283 283 282 283 284 285 285 285 284 284 284 283 283 283 282 282 281 281 276 275 275 275 277 275 278 277 278 278 280 280 281 281 281 280 281 281
267 268 268 268 268 267 267 267 267 267 268 268 267 267 267 267 268 268 268 269 270 270 271 272 275 276 276 275 275 275 276 277 280 282 281 280 280 281 282 282 281 280 279 279 280 281 282 283 283 284 284 283 283 284 285 285 285 285 284 285 284 283 283 283 283 281 281 278 276 275 275 276 276 276 278 278 279 279 279 280 280 280 281 281 281
267 268 268 267 266 266 265 266 266 267 266 266 266 266 267 267 267 267 268 269 269 270 271 273 275 274 274 274 274 274 274 275 276 278 279 280 280 281 281 281 281 280 279 279 279 280 281 282 283 283 284 283 284 284 284 285 285 285 284 285 284 284 284 284 283 283 282 281 276 275 275 275 275 277 278 279 278 278 279 280 280 280 280 281 281
267 266 266 265 265 265 265 266 266 266 265 265 265 266 266 266 267 267 268 268 269 270 272 273 273 272 272 272 273 273 273 274 274 275 277 279 279 280 280 280 280 279 279 279 281 281 281 281 282 282 283 283 283 283 283 284 284 284 284 284 284 285 285 284 284 283 282 282 279 277 275 275 277 277 278 277 278 278 278 279 279 279 279 280 280
266 265 265 265 265 265 265 265 265 265 265 265 265 266 266 266 266 267 268 268 269 270 270 270 270 270 271 271 272 272 273 273 274 274 275 278 279 278 279 279 279 279 279 279 281 281 281 281 282 282 283 283 283 283 283 283 284 284 284 284 284 284 284 284 284 284 283 283 281 276 277 276 276 276 278 278 277 276 277 278 279 279 279 278 279
265 265 265 264 264 264 264 264 264 264 265 265 266 266 267 267 267 268 269 269 268 268 268 269 270 270 270 270 271 272 272 273 273 274 275 276 278 278 278 277 278 278 278 279 280 281 282 282 282 282 282 283 283 282 282 283 283 283 284 284 284 284 283 283 283 283 283 283 280 278 277 277 277 276 277 278 278 278 276 276 275 277 278 278 277
265 265 264 264 264 264 264 265 265 265 265 266 266 266 266 267 267 269 269 268 267 267 267 267 268 269 269 270 271 272 272 272 273 273 274 275 277 278 279 278 276 277 277 278 279 279 280 281 282 282 282 282 283 283 283 283 283 283 284 284 284 283 282 282 282 282 282 282 280 278 278 277 277 278 278 278 277 277 277 276 274 275 275 278 278
264 264 264 264 264 264 265 265 265 265 265 265 265 265 266 266 267 267 268 267 267 267 267 267 267 267 269 269 270 271 271 271 272 273 274 275 277 277 278 278 277 276 276 277 278 279 279 280 281 282 282 283 284 284 284 284 283 282 283 284 283 283 283 282 282 281 281 282 280 279 277 277 277 276 275 275 275 276 276 276 275 276 276 276 276
264 264 264 264 264 265 265 265 265 265 265 265 265 265 265 266 266 266 267 266 266 266 266 266 267 267 268 268 269 269 270 270 272 275 276 275 276 277 278 278 278 277 276 276 277 278 278 278 279 283 283 284 284 284 284 284 284 283 283 283 283 283 282 282 281 281 281 280 279 277 276 276 276 276 275 275 277 278 277 276 275 276 276 274 276
264 264 263 264 264 264 264 264 265 264 265 265 265 265 265 266 266 266 266 265 265 266 266 266 266 267 267 267 268 268 269 270 274 276 277 279 278 277 277 277 276 276 276 276 276 277 277 277 277 280 282 283 283 284 284 284 284 284 284 284 284 283 282 281 281 281 280 280 279 277 276 276 277 277 277 276 277 277 276 277 276 276 273 272 271
263 263 264 264 264 264 264 264 264 264 264 265 265 265 265 265 265 265 265 265 265 266 266 266 266 266 267 267 267 268 269 273 275 277 278 279 279 278 277 277 277 277 277 277 277 277 277 277 277 278 278 279 281 282 283 284 284 284 284 284 284 285 285 283 281 280 280 280 279 277 277 277 276 277 276 277 276 277 277 276 276 275 273 273 274
263 263 263 263 263 264 264 264 264 264 264 264 265 265 265 265 265 265 265 265 266 266 266 267 267 267 268 268 268 269 269 273 276 277 278 279 280 279 277 277 277 277 277 278 278 278 278 277 277 278 278 281 281 280 281 282 284 284 284 284 284 284 285 285 285 283 282 281 280 278 278 277 276 276 277 277 278 276 276 275 276 276 275 274 275
262 262 263 263 263 263 264 263 263 263 264 264 264 264 264 264 265 265 265 266 266 266 266 266 267 267 268 269 269 270 270 273 276 277 278 279 280 280 278 278 278 278 279 278 278 278 279 278 278 277 277 278 279 280 281 282 282 283 283 282 281 282 284 284 284 285 283 281 281 279 279 279 277 277 278 279 277 275 276 275 276 275 275 275 276
262 262 262 263 263 263 263 263 263 263 264 264 264 264 264 264 264 265 265 265 265 265 266 266 267 268 268 269 269 269 270 275 276 278 279 280 281 281 280 280 279 280 280 280 279 279 279 279 279 279 278 278 280 281 281 281 282 282 281 281 281 281 281 282 282 282 282 281 281 280 280 280 280 279 278 279 278 278 278 277 277 276 276 275 274
262 262 262 262 262 263 263 263 263 263 263 263 263 263 264 264 264 265 265 265 266 266 267 267 267 267 268 269 269 269 271 275 277 278 280 281 282 281 281 281 280 280 280 281 280 280 280 280 280 279 279 279 281 283 283 281 280 279 278 278 279 280 280 282 283 284 283 282 280 279 279 280 282 280 279 278 278 278 278 277 276 275 273 272 271
261 261 261 262 262 262 263 262 262 262 263 263 263 263 263 264 264 265 265 265 265 266 266 267 268 268 268 269 269 270 271 274 277 279 280 282 282 281 282 282 281 281 281 281 281 281 281 281 281 280 279 279 281 283 284 283 279 278 276 276 276 276 277 278 283 285 285 286 286 286 284 284 284 284 283 282 279 278 276 275 273 274 273 270 270
261 261 261 262 262 262 262 262 262 262 262 262 263 263 264 264 264 265 265 265 265 266 267 267 268 268 269 269 270 270 271 274 278 280 282 283 283 282 282 281 280 281 281 281 281 281 281 283 282 281 281 280 283 284 285 284 279 278 276 275 274 274 275 276 275 280 284 285 286 286 286 286 285 284 284 283 282 280 276 274 274 274 272 273 270
260 261 261 262 262 262 262 262 262 262 262 262 263 263 263 264 265 265 266 266 266 267 267 267 268 269 270 272 275 275 274 276 279 280 281 282 282 281 281 280 279 279 279 279 280 280 279 282 283 282 281 282 284 285 285 284 281 279 278 276 275 275 276 276 276 275 276 277 280 282 284 285 285 283 282 283 282 280 278 277 276 274 273 273 271
261 261 262 262 262 262 262 262 262 262 262 262 263 263 264 264 265 265 266 266 266 267 268 268 268 270 272 273 274 275 275 275 277 280 281 281 282 281 279 278 278 279 279 279 278 278 279 280 282 284 284 284 284 285 285 285 283 281 280 278 277 277 278 277 277 277 277 278 278 279 280 282 283 283 282 281 281 279 278 278 277 276 275 274 272
261 261 262 262 262 262 262 262 262 262 263 263 263 264 264 265 265 265 265 266 266 267 267 267 268 269 270 272 272 273 274 273 274 279 280 280 281 281 277 275 275 276 277 279 279 279 279 280 280 283 284 284 285 285 285 285 284 282 281 280 280 281 281 279 280 281 278 279 279 279 279 279 281 281 281 280 279 278 278 278 278 277 276 274 273
261 261 261 261 261 261 262 262 263 263 263 263 263 263 264 265 265 265 266 266 266 266 266 266 267 268 269 270 270 271 273 275 274 277 279 279 280 280 279 277 277 275 276 276 277 278 279 280 281 282 283 284 285 285 285 285 285 283 282 283 284 284 282 281 280 280 279 279 279 278 279 279 279 279 279 278 278 277 277 277 277 277 276 277 275
261 261 260 261 261 261 261 262 262 262 263 263 263 263 264 264 265 266 265 265 265 265 266 267 267 268 268 269 270 270 271 273 277 276 278 279 279 279 280 279 280 279 277 277 277 277 278 278 280 283 283 284 285 285 285 285 285 283 285 285 284 284 283 280 279 279 278 278 278 277 277 278 277 276 275 274 272 272 271 270 270 269 268 267 269
260 260 260 260 260 261 261 262 262 262 263 263 264 263 263 264 265 265 265 265 265 265 266 267 268 267 267 269 270 270 271 272 275 277 277 278 279 279 280 280 280 279 278 277 277 276 276 275 278 282 283 284 285 285 285 285 283 285 285 285 284 284 282 279 278 278 278 277 276 276 276 276 275 273 271 268 267 265 264 265 265 266 265 265 267
259 259 259 259 260 260 261 261 262 262 263 264 263 263 264 264 264 265 265 265 266 266 266 267 267 268 268 269 270 272 273 273 272 275 277 278 278 279 279 280 280 280 278 277 277 276 278 280 281 281 282 283 283 284 284 284 285 285 285 284 284 283 282 279 278 277 276 275 275 275 273 271 271 269 267 265 264 264 263 262 262 262 263 263 262
258 258 259 259 259 260 260 261 262 263 263 264 264 264 264 264 264 265 265 266 266 266 267 268 268 269 270 271 273 274 275 275 273 271 274 276 276 278 279 279 279 280 279 278 280 280 281 281 281 281 281 281 281 281 282 283 284 284 284 284 283 282 280 278 277 276 275 275 273 270 266 264 264 264 265 266 267 266 265 265 265 264 265 265 264
258 258 258 259 259 260 260 260 262 263 263 263 264 264 265 264 264 265 265 266 267 267 268 268 269 270 271 272 274 275 275 273 273 273 274 274 274 275 276 277 278 279 279 279 279 279 280 281 280 281 280 282 282 282 282 283 282 282 282 282 280 278 278 278 277 276 274 271 267 264 264 264 264 265 265 266 265 265 266 265 265 264 265 265 263
258 258 258 259 259 260 260 262 262 262 263 263 264 264 265 265 265 266 267 267 267 267 267 268 270 272 273 275 276 276 275 275 275 275 276 276 277 276 275 276 276 276 276 276 276 277 277 278 278 278 277 276 276 276 276 276 276 276 276 277 277 277 277 277 275 271 269 267 265 264 263 264 264 265 265 265 264 264 265 265 264 263 263 264 262
258 258 259 259 259 260 261 261 262 262 263 264 265 266 265 266 267 269 270 270 270 270 271 273 275 276 276 276 276 275 275 275 276 280 279 280 277 274 274 274 275 276 277 277 275 275 275 274 274 274 274 274 273 273 273 274 273 274 274 274 274 274 273 272 269 267 266 265 264 263 264 264 264 264 263 263 262 262 263 263 264 263 262 262 262
258 258 259 259 260 261 261 261 261 262 263 264 265 266 269 272 272 271 271 275 277 278 278 276 277 277 277 278 278 276 275 277 281 281 280 280 280 280 279 279 279 278 278 277 275 272 272 271 271 271 272 272 271 271 271 272 272 272 272 273 272 271 270 268 267 266 266 265 265 265 264 264 263 263 263 262 261 262 263 264 262 263 263 262 261
258 258 259 259 260 261 262 262 262 262 263 264 265 265 266 268 273 275 275 276 277 278 279 279 280 280 279 278 279 280 281 281 281 281 281 280 280 280 279 279 279 278 277 274 271 271 270 270 270 270 270 271 270 270 270 270 269 269 268 268 268 268 267 266 266 266 266 265 265 265 264 264 263 263 262 261 261 261 260 261 262 263 263 262 261
258 258 259 260 261 262 262 262 262 263 263 264 265 266 266 266 268 273 275 276 277 277 278 279 279 280 280 281 279 277 280 281 281 281 280 280 280 279 279 279 278 278 277 275 270 269 269 269 269 269 269 269 269 269 269 269 269 268 267 267 266 266 266 265 266 266 266 265 265 264 264 264 263 262 262 261 260 260 260 260 261 261 261 261 261
258 259 260 261 261 262 262 262 263 263 263 264 265 266 266 266 266 267 270 275 276 276 277 278 279 279 279 281 281 280 280 280 280 280 280 279 279 278 278 278 277 276 275 270 269 268 268 268 268 268 268 267 268 268 268 268 267 267 267 266 265 265 265 266 267 266 265 265 265 264 264 263 262 261 261 261 261 260 260 260 259 260 260 259 258
259 259 260 261 261 261 262 263 263 263 264 265 266 266 267 267 267 268 268 269 270 273 275 276 277 278 278 279 280 279 279 279 279 279 279 278 277 277 276 274 276 275 272 268 268 267 267 267 267 266 266 266 266 266 266 266 266 265 265 264 264 265 265 266 266 265 265 266 264 263 263 263 262 261 261 261 261 261 260 259 259 260 260 259 258
259 260 261 262 261 262 262 263 263 264 265 265 266 266 267 268 269 269 268 268 268 269 269 271 274 277 276 276 278 278 278 278 278 277 277 277 276 275 273 268 267 268 269 269 268 267 266 265 265 265 265 265 265 265 265 265 264 264 263 263 263 264 265 265 265 265 264 264 263 263 262 262 262 262 261 260 260 260 259 259 259 260 259 258 257
259 260 260 261 262 262 263 263 264 264 265 266 267 267 268 269 269 269 269 269 269 269 269 270 271 274 276 276 276 277 277 276 276 276 276 275 274 272 267 265 265 266 266 267 267 266 266 265 265 265 265 265 265 265 264 264 263 262 261 262 262 263 263 263 263 263 263 263 262 262 262 261 261 261 261 261 260 260 259 259 258 257 258 258 257
259 259 260 261 262 262 263 264 264 265 266 266 267 267 268 269 269 269 269 268 268 268 268 269 270 270 273 273 274 275 275 275 274 274 274 274 273 269 266 265 265 265 265 265 265 265 265 264 264 265 265 265 264 263 263 263 263 263 264 262 263 262 262 262 262 262 262 262 262 262 261 261 261 261 261 259 258 258 257 257 256 256 256 256 255
259 259 260 261 262 263 263 264 264 265 265 266 267 267 268 268 268 268 268 267 268 268 267 268 269 268 268 270 273 272 271 271 272 270 270 269 267 266 265 265 264 264 264 264 264 263 264 264 264 265 264 263 262 261 261 261 261 261 261 261 262 262 265 264 263 262 261 261 261 261 260 260 260 260 259 259 257 256 255 256 257 257 254 254 254
259 260 261 262 262 262 263 264 264 264 265 265 266 267 268 268 268 267 267 267 267 267 267 267 266 266 268 270 269 270 269 266 265 264 264 265 265 265 266 265 264 264 264 263 263 263 262 263 264 264 263 262 261 261 261 261 261 260 261 262 262 263 261 260 260 260 260 260 259 259 259 258 258 258 259 258 257 256 255 255 255 256 255 255 254
259 259 260 262 262 263 263 264 264 264 264 264 265 266 267 267 267 267 266 266 266 266 266 266 265 265 267 269 268 267 265 264 264 263 263 263 263 263 264 265 265 264 264 264 264 264 263 263 264 263 262 261 261 260 260 260 260 260 260 260 260 259 259 259 259 259 259 258 258 257 258 257 257 257 256 257 257 256 256 255 254 254 255 255 252
259 259 261 261 262 262 263 263 263 263 263 264 265 266 266 266 266 266 266 266 266 265 265 265 265 265 267 268 270 268 264 263 263 262 262 262 262 262 262 263 263 263 264 264 264 263 263 263 264 263 262 260 259 260 259 259 259 259 258 258 258 258 257 257 257 257 257 257 257 257 256 256 256 257 256 253 258 256 252 253 253 251 251 251 251
258 259 259 260 261 261 261 262 262 263 263 264 264 265 266 266 266 266 265 265 265 265 265 264 264 264 266 268 268 267 263 262 262 262 262 261 261 261 262 262 262 263 263 263 263 263 263 263 263 264 262 261 260 260 260 259 259 259 258 258 257 257 257 256 256 256 257 257 256 256 255 255 255 255 256 258 254 253 253 252 252 251 249 249 249
259 259 259 260 260 260 261 261 262 262 262 263 264 265 266 265 265 265 265 265 265 264 264 264 264 264 263 265 264 264 262 262 262 261 261 261 261 261 261 261 261 262 262 263 263 263 263 263 263 263 263 262 262 262 261 260 259 259 258 258 258 257 256 255 255 256 256 256 255 254 255 257 257 255 255 252 252 252 252 251 249 249 249 248 249
258 259 259 260 260 260 260 260 261 261 261 263 263 264 265 265 265 265 265 264 264 264 263 263 263 263 262 263 263 262 261 261 260 260 260 260 260 260 260 261 261 261 261 261 262 263 263 262 262 262 263 263 263 262 261 259 258 259 259 258 257 257 256 256 256 256 256 256 255 255 254 253 253 254 253 251 251 251 249 249 249 249 248 247 247
258 258 258 258 259 259 259 260 260 260 261 261 261 262 264 264 264 264 264 263 263 263 262 262 262 262 261 261 260 260 260 259 260 260 259 259 259 259 260 260 260 260 260 260 260 261 261 261 261 261 260 260 259 258 258 257 257 257 257 258 258 257 257 257 257 256 256 255 255 255 254 253 252 251 251 250 250 250 250 250 250 250 248 247 247
258 258 258 258 258 258 259 259 260 259 260 260 260 261 262 263 263 264 264 263 263 262 261 261 261 261 260 259 259 259 259 258 258 259 259 258 258 258 259 259 259 259 259 258 258 258 259 259 259 259 258 257 256 255 255 254 255 254 253 253 254 255 254 254 254 254 254 255 255 254 253 251 250 251 251 250 249 249 249 247 247 249 250 249 248
258 258 258 258 258 258 258 259 259 259 259 259 260 260 261 262 262 263 263 263 262 262 261 260 259 259 259 259 258 257 258 257 257 257 257 257 257 257 257 258 258 258 257 257 257 257 256 256 256 256 256 255 254 253 252 252 251 251 251 251 252 252 250 251 252 251 251 252 253 254 253 252 251 249 250 249 248 248 248 248 249 249 247 248 248
258 258 258 258 258 257 257 258 258 259 259 259 259 260 261 261 261 262 261 261 261 260 260 260 259 259 258 258 258 257 257 256 256 256 256 256 256 256 256 256 256 256 256 255 255 255 254 254 254 253 253 253 252 251 250 249 249 249 248 248 249 249 252 252 250 249 249 250 250 251 252 252 249 249 249 249 248 249 248 248 247 247 247 247 248
258 258 258 258 258 258 257 257 258 257 258 258 258 259 260 260 260 260 261 260 260 260 259 258 258 258 257 257 257 257 256 256 255 255 255 255 255 255 255 255 255 255 255 254 253 253 252 251 251 251 250 250 249 249 250 249 248 248 248 248 251 253 252 252 250 248 251 251 250 250 248 250 250 248 249 248 248 247 248 246 246 248 247 247 247
258 258 258 258 258 258 258 258 258 257 258 258 258 258 259 259 259 259 259 259 259 259 258 258 258 257 256 256 256 256 255 255 254 254 254 254 254 254 254 254 254 254 253 252 252 252 251 250 250 250 250 249 249 248 247 247 247 248 247 249 252 252 252 252 252 252 250 247 249 248 249 248 247 247 246 247 247 247 247 247 247 248 247 246 247
257 257 257 257 257 258 258 257 257 257 257 257 257 258 258 258 258 258 258 258 258 258 258 257 257 256 255 255 255 254 254 254 254 253 253 252 252 252 252 252 252 252 252 251 251 250 249 249 248 248 248 249 249 249 247 248 247 248 251 252 252 252 252 252 250 251 250 249 246 248 249 249 247 247 245 244 244 245 248 248 247 246 246 247 247
Wind_Speed
11 11 13 13 15 15 15 13 12 10 10 11 12 10 8 8 7 6 7 9 10 10 10 10 11 12 12 12 13 13 12 12 10 10 9 9 8 9 9 8 9 8 8 8 7 7 8 9 9 9 8 7 7 7 7 8 8 8 8 8 9 9 10 10 11 11 1 1 5 7 7 9 7 9 9 8 8 8 8 8 7 7 8 8 7
12 14 13 13 14 12 14 14 13 12 14 12 10 8 8 8 8 9 9 10 11 12 11 11 12 9 8 9 11 10 10 12 12 10 10 9 9 8 9 9 9 8 7 8 7 7 8 9 9 9 8 8 8 8 7 7 8 9 9 9 9 10 10 10 11 11 9 3 3 3 6 8 8 9 10 11 10 8 10 8 7 7 6 6 7
12 13 13 12 13 13 14 14 14 15 12 9 9 9 10 10 10 10 9 9 10 11 11 12 13 9 7 7 8 8 10 10 9 8 6 7 8 8 8 8 9 9 8 8 8 8 9 9 10 9 8 8 8 8 8 8 8 9 10 9 10 10 10 11 10 12 11 6 5 7 7 7 7 9 10 8 9 10 11 10 9 7 5 6 6
14 15 14 14 13 14 15 14 16 13 9 10 12 12 12 12 12 12 10 9 11 12 12 12 9 8 8 8 8 8 9 9 11 10 8 6 7 8 8 8 8 8 8 8 8 8 10 9 9 9 8 9 8 8 7 7 8 8 9 9 9 10 10 10 12 10 9 8 6 7 7 8 4 3 7 6 9 9 9 8 8 8 7 6 6
15 15 15 16 15 14 15 14 12 11 12 11 13 13 13 12 12 12 10 9 10 11 10 9 9 8 9 9 9 9 9 9 10 11 10 7 7 7 7 7 7 7 8 8 8 9 9 10 10 9 9 9 9 8 7 8 8 8 8 8 8 9 8 9 11 11 8 9 7 5 5 4 3 5 8 9 6 5 4 7 9 9 8 7 5
14 15 14 14 14 15 14 14 14 15 14 13 13 13 13 13 12 11 10 11 10 8 10 10 9 10 9 10 10 10 9 9 9 10 11 10 7 6 6 6 6 7 7 8 9 9 9 9 9 8 10 10 9 9 8 9 8 8 8 8 8 8 9 9 9 10 10 9 8 6 6 7 4 3 7 8 9 7 5 4 3 6 8 7 6
15 14 15 14 14 14 14 14 14 13 13 13 12 12 13 13 13 12 9 8 8 10 10 11 9 10 10 10 10 10 10 9 9 9 10 10 9 7 6 6 6 6 6 8 8 8 8 8 8 9 10 10 10 9 9 9 9 9 9 9 9 9 8 8 8 10 10 9 6 8 8 6 7 7 5 7 7 8 9 8 6 6 7 8 5
15 15 14 14 14 15 14 14 14 13 13 13 13 13 13 14 14 12 10 10 8 10 10 10 11 10 10 10 10 10 10 10 10 10 9 9 9 8 7 5 5 6 6 7 7 7 8 8 8 9 10 10 10 9 9 9 8 9 8 7 7 8 8 8 8 8 8 9 8 8 7 8 4 2 4 5 4 3 6 8 9 7 4 4 3
15 15 15 15 15 14 14 13 13 13 13 13 13 13 13 13 13 12 10 9 8 9 10 10 11 12 11 10 10 9 9 9 8 8 9 9 8 8 8 6 6 6 5 6 6 7 7 7 8 8 10 12 14 12 12 11 9 8 8 8 8 7 7 8 8 8 7 7 6 6 7 7 7 8 7 8 11 11 8 6 4 5 6 4 4
15 15 15 15 15 15 15 14 14 14 14 14 13 13 12 12 12 11 11 10 11 10 10 10 9 10 10 10 9 9 8 7 12 19 17 11 9 8 8 8 7 6 6 6 6 6 7 7 7 10 13 15 15 16 16 16 15 11 8 8 9 8 8 7 7 7 7 8 7 8 7 7 8 9 10 10 6 4 7 8 8 5 6 3 3
15 15 15 15 15 15 14 14 14 14 14 14 14 13 13 11 11 11 11 11 10 11 10 10 9 9 10 10 11 10 10 9 18 19 19 21 15 9 8 7 6 7 7 7 7 7 6 7 6 8 10 13 13 16 16 17 17 16 14 13 11 10 9 8 7 8 8 7 7 7 8 9 9 9 10 8 8 10 9 9 7 7 9 9 8
15 15 15 15 15 15 14 15 14 14 14 14 14 13 13 12 12 12 11 12 10 9 10 10 9 9 9 10 11 11 11 16 21 21 21 21 19 12 9 8 7 7 8 8 8 7 7 7 7 6 7 9 9 10 14 16 16 15 15 14 14 14 13 10 9 8 8 8 8 9 9 10 9 8 7 7 7 7 5 6 8 10 9 9 8
15 15 15 15 15 14 14 14 14 14 14 14 13 13 12 13 13 13 13 12 11 11 11 11 10 10 10 11 11 11 10 17 20 21 21 21 21 17 9 9 9 9 9 9 9 9 7 7 7 7 7 12 11 9 10 11 15 17 15 15 14 14 14 15 12 9 8 8 8 9 11 10 9 9 9 9 8 9 8 8 8 8 8 9 8
15 15 15 15 15 15 14 15 14 14 14 14 13 13 12 12 13 12 11 11 11 12 12 13 12 11 10 10 10 12 12 16 21 21 20 20 20 17 10 10 10 10 10 10 9 10 9 8 8 8 7 8 8 9 10 10 10 11 11 9 8 10 12 13 13 13 10 9 9 10 9 8 10 9 9 9 10 10 10 9 8 7 8 10 5
15 15 15 15 15 15 15 15 15 15 14 14 13 13 12 12 12 11 10 11 11 11 11 11 11 11 11 10 10 11 12 19 19 20 19 19 18 16 10 10 10 11 11 11 11 10 10 9 9 9 8 8 8 11 11 11 10 10 10 9 9 8 7 7 7 7 7 6 7 6 7 10 9 9 10 11 13 12 12 13 14 12 6 5 6
16 15 16 16 16 16 16 16 15 14 14 14 13 13 13 12 12 11 11 10 9 10 10 10 11 12 12 11 11 12 11 18 19 19 20 19 19 10 9 11 12 12 12 12 11 10 10 10 9 9 8 9 11 18 15 10 10 10 10 8 8 7 8 8 12 10 7 5 4 4 6 9 10 10 11 10 8 5 5 6 6 7 7 6 5
16 16 16 16 16 15 16 16 14 14 14 13 13 13 13 12 11 9 10 10 10 10 10 10 10 10 12 11 11 11 10 14 17 17 16 18 14 8 10 10 11 12 12 11 11 11 10 10 9 9 8 9 13 18 18 17 9 10 9 8 8 7 8 6 11 15 16 15 14 11 10 11 14 16 18 18 11 9 8 7 7 8 8 7 4
17 17 16 17 16 15 14 14 14 14 13 13 14 13 12 11 10 9 10 10 10 10 10 10 9 9 9 10 9 9 9 13 17 16 15 13 8 6 6 5 5 7 8 9 8 8 10 16 13 10 10 10 15 19 20 16 10 10 9 9 10 8 7 6 4 6 13 16 17 15 14 13 15 18 18 19 18 13 11 11 10 8 8 9 9
17 17 18 17 16 14 14 14 14 13 13 13 12 13 12 11 11 10 9 9 10 9 9 9 9 8 8 9 15 12 9 10 13 15 17 15 10 3 2 2 4 4 4 5 5 6 7 10 15 13 11 12 17 18 20 16 11 11 11 10 10 10 9 7 7 6 4 4 5 6 8 11 10 11 13 21 20 17 12 11 10 10 11 9 6
17 16 16 16 14 14 13 13 14 14 15 14 12 12 10 10 10 10 10 8 8 8 8 8 9 9 9 9 9 10 8 7 8 15 15 13 12 6 1 1 2 3 4 4 4 4 6 6 10 16 17 16 17 19 20 22 13 11 10 10 10 11 7 7 6 6 6 7 6 5 6 4 6 8 11 14 15 15 12 9 11 11 10 9 9
17 15 15 15 16 15 13 13 14 14 13 13 12 11 10 10 10 10 10 9 8 8 9 9 9 10 9 9 8 9 8 8 8 13 13 12 11 9 1 2 2 2 3 3 4 5 6 6 6 12 17 18 18 20 22 23 19 12 12 11 11 10 8 7 9 12 6 5 6 5 4 4 5 7 8 10 11 11 9 8 10 10 9 9 9
15 16 17 16 15 14 13 13 13 12 12 12 12 11 9 10 10 10 8 9 10 10 9 9 8 9 9 8 7 8 8 11 8 9 12 13 11 12 5 3 4 4 4 4 5 4 4 5 6 12 18 19 19 21 24 22 24 13 13 16 18 16 10 8 7 8 7 6 5 5 5 6 6 7 7 8 8 9 8 8 8 8 6 7 11
16 15 15 15 15 15 14 15 14 11 12 12 12 12 11 10 10 9 9 9 10 10 10 9 8 9 9 9 7 8 7 8 11 8 11 13 12 10 11 7 8 5 5 5 5 6 5 5 4 11 17 20 21 23 22 23 20 13 18 19 18 18 12 8 8 8 7 7 7 7 7 7 7 6 6 6 5 6 6 5 5 6 6 6 4
15 15 14 14 15 14 14 14 13 12 12 12 11 11 11 10 9 8 8 8 8 9 8 8 8 8 9 10 10 8 7 6 8 10 8 11 10 10 10 12 11 6 4 5 5 5 5 5 6 10 12 15 19 20 21 21 14 19 19 19 18 16 10 8 8 8 8 7 7 7 6 6 6 6 6 6 6 8 8 7 8 8 10 8 8
15 15 15 14 14 14 14 13 13 12 11 11 11 10 11 10 9 8 8 7 7 8 8 7 8 9 9 10 10 9 7 6 5 7 10 10 9 8 8 9 10 11 7 5 6 5 7 11 13 15 14 13 15 16 16 19 21 17 17 17 17 10 9 8 9 8 8 8 8 6 6 4 5 6 7 9 10 11 14 13 14 13 14 14 14
16 16 15 14 14 14 15 14 12 11 12 9 9 9 9 9 8 8 8 7 7 7 8 8 8 9 9 10 9 8 7 5 5 5 6 7 6 8 9 9 11 12 11 8 9 12 13 15 16 16 15 12 9 8 7 8 12 16 18 15 10 9 8 9 8 9 8 8 8 8 8 9 9 7 7 8 9 8 9 8 9 7 8 10 10
16 15 14 14 13 13 13 12 13 12 10 9 8 8 8 8 8 8 7 7 8 8 8 9 10 10 10 10 9 6 4 4 5 5 5 4 5 5 5 5 8 7 6 5 6 6 8 9 9 11 9 11 10 7 8 9 7 6 5 6 5 6 8 9 10 9 8 8 8 9 7 7 7 9 7 7 7 5 6 9 9 7 7 7 10
15 15 15 13 11 11 12 13 13 13 12 10 9 9 8 8 8 8 7 8 8 9 10 10 10 10 9 9 6 5 4 4 4 4 5 4 3 1 2 3 4 2 1 1 1 1 2 2 1 2 1 4 4 5 4 5 4 4 4 5 6 6 7 10 10 7 7 8 9 8 9 8 8 7 6 7 7 6 5 7 10 8 6 8 7
16 15 13 12 12 11 11 10 11 11 12 13 10 8 8 8 8 9 8 6 6 8 9 9 8 8 9 9 7 6 5 5 5 5 6 7 4 3 3 3 3 3 4 6 4 4 4 4 4 3 3 4 5 5 5 6 6 5 7 7 7 8 7 8 9 9 9 10 10 11 9 8 7 6 7 7 6 6 4 7 6 9 5 3 8
14 13 12 11 11 11 11 11 10 10 10 11 13 14 11 14 9 7 9 15 21 19 16 10 11 9 9 9 5 5 4 5 8 11 9 10 10 8 6 6 6 5 7 9 5 5 4 4 3 3 3 4 5 5 5 6 7 7 6 7 7 7 7 7 8 8 8 9 9 9 9 9 8 7 7 8 6 4 3 6 6 6 7 6 7
12 12 12 11 13 12 11 11 11 10 9 10 9 10 12 14 18 17 16 18 19 20 19 20 22 21 14 9 6 8 9 9 11 11 12 11 10 10 10 8 6 5 6 6 6 4 4 5 4 4 4 4 5 5 6 6 6 7 7 6 6 7 7 8 7 8 8 8 8 8 9 10 9 8 9 8 8 6 5 4 5 5 6 8 8
12 12 12 12 13 12 11 11 11 10 10 10 9 8 9 11 14 18 21 21 20 19 20 21 22 21 24 15 7 5 10 12 13 13 13 13 12 11 11 9 8 7 7 9 6 5 4 5 5 5 4 6 5 5 5 6 6 6 7 7 6 5 7 7 7 8 8 8 8 7 8 8 8 8 8 8 7 7 7 6 5 6 6 5 6
14 13 12 12 12 12 11 11 11 10 11 11 10 9 8 8 9 12 15 19 20 17 19 22 22 22 22 22 22 17 14 14 15 14 12 11 11 11 11 11 10 8 10 7 5 5 5 5 5 5 5 5 4 5 5 6 6 5 5 7 7 6 6 7 7 7 7 8 8 8 7 7 7 7 7 7 8 8 7 6 5 6 6 7 6
14 11 11 13 12 11 11 10 10 11 10 9 9 9 8 8 8 8 9 10 13 15 19 21 22 21 20 21 20 18 17 16 15 14 12 11 11 10 10 9 14 15 11 5 5 5 4 5 6 5 5 5 5 5 6 6 6 6 7 7 7 7 7 6 7 7 7 7 7 7 8 7 7 9 7 6 5 7 7 6 7 7 6 7 8
12 13 17 14 10 10 10 10 10 10 10 10 10 10 10 9 8 8 8 9 9 10 9 12 15 20 15 13 17 19 18 17 17 16 16 12 10 12 12 8 7 7 8 6 6 5 5 5 5 5 5 6 5 5 6 5 6 6 7 7 6 6 6 6 6 6 7 7 7 7 7 8 7 6 9 9 8 7 7 7 5 6 7 7 7
13 11 11 13 12 10 10 10 10 10 10 11 10 10 9 8 9 9 8 8 8 9 8 9 9 12 18 17 20 17 18 18 18 18 18 17 15 11 7 6 6 6 6 6 5 5 5 5 4 5 5 5 5 5 5 6 6 6 5 6 7 6 6 6 6 6 6 6 6 7 7 6 6 6 6 6 8 8 7 7 6 6 6 7 6
11 11 10 11 11 10 10 10 9 11 11 10 10 9 9 8 9 8 8 8 8 8 8 9 10 11 13 12 16 15 17 16 17 19 19 18 17 11 7 6 5 5 6 5 5 5 6 5 4 5 5 5 5 5 5 6 5 6 6 5 6 7 6 5 6 5 7 7 6 6 7 7 6 6 8 8 6 6 6 6 6 6 6 7 7
12 11 11 12 12 11 10 9 10 13 10 10 9 9 8 8 8 8 8 9 9 8 8 9 9 9 11 11 13 10 9 11 15 14 15 15 12 9 8 6 6 5 5 5 5 4 5 5 5 5 5 5 5 5 6 6 5 6 6 6 6 6 9 8 7 7 7 7 7 6 6 6 6 6 6 9 8 7 7 6 7 7 6 6 6
11 16 19 20 13 10 9 9 10 10 10 10 9 10 9 9 9 8 8 7 8 8 8 7 8 9 9 10 9 9 10 10 10 9 9 9 8 8 7 6 6 6 5 5 4 4 4 5 5 5 4 4 5 4 5 6 5 6 6 6 6 6 7 6 6 6 6 6 6 5 6 5 5 5 6 7 7 7 7 7 6 7 8 7 6
12 11 12 18 11 12 10 10 10 10 10 10 10 9 9 10 9 9 8 8 8 8 7 8 9 8 9 10 9 8 8 8 8 8 8 8 8 8 7 6 6 6 6 5 5 4 4 4 4 4 4 4 4 4 4 5 5 5 5 5 6 6 5 5 6 6 6 6 6 6 6 6 5 5 5 6 7 7 8 7 6 6 6 6 5
11 11 11 12 14 11 10 10 10 10 10 10 10 9 9 11 10 9 8 8 7 7 7 7 7 7 9 14 19 15 8 7 8 7 8 7 7 7 7 7 6 6 6 5 5 5 4 4 4 4 4 4 4 4 4 5 5 5 5 5 5 6 5 5 5 6 6 6 6 6 6 6 6 6 6 4 5 6 4 6 6 5 5 5 7
11 10 11 10 11 10 10 10 10 11 10 10 10 9 9 10 9 8 9 9 9 8 7 7 7 7 12 21 19 18 9 7 7 8 7 7 7 6 6 5 6 5 5 5 5 4 4 4 4 4 4 4 4 3 4 4 4 5 5 5 6 6 5 5 5 5 6 6 5 6 6 5 5 5 6 6 6 6 6 6 6 6 6 6 5
11 10 10 10 10 10 10 10 10 9 10 10 10 9 10 9 9 9 8 8 8 8 8 8 7 7 8 14 14 14 8 8 7 8 7 7 7 6 6 6 6 6 5 5 5 4 4 4 4 4 4 4 3 2 2 2 3 4 5 5 5 5 5 5 5 5 5 6 6 5 5 5 6 6 6 6 6 6 7 7 6 6 5 5 5
10 10 10 10 10 9 9 9 10 10 9 11 11 10 10 9 8 9 9 9 9 9 9 8 9 8 8 9 10 9 8 8 7 7 8 7 7 7 7 6 6 6 6 6 5 5 4 4 4 4 4 4 4 4 3 2 2 3 5 5 5 5 5 6 6 6 6 7 6 7 6 6 6 6 6 7 7 7 6 5 6 6 6 4 5
10 10 10 10 10 9 10 10 10 10 11 10 9 9 10 10 9 9 9 10 10 10 10 10 9 9 10 10 9 9 8 8 8 8 7 8 7 7 7 7 7 7 6 6 6 6 5 5 4 5 5 4 4 4 4 3 3 3 2 3 5 6 6 6 6 5 6 7 7 7 6 6 6 6 6 6 6 6 6 5 6 5 4 4 5
10 9 10 10 10 10 10 10 11 9 9 9 9 9 9 10 10 10 10 10 10 9 10 9 9 9 9 9 9 9 8 8 7 8 8 7 8 7 8 7 7 7 6 6 6 7 6 6 5 4 4 4 4 4 4 4 4 4 3 3 4 3 3 4 5 6 6 6 7 7 6 5 5 5 6 6 4 4 5 4 4 5 6 6 5
10 9 10 10 10 10 10 10 9 10 10 10 9 9 9 9 9 10 11 12 11 11 9 9 10 9 9 9 9 9 9 9 8 8 8 8 8 7 7 7 7 7 7 7 6 6 6 6 5 5 4 4 4 5 5 4 4 4 3 3 5 5 4 4 5 4 4 4 5 7 6 6 6 4 5 5 4 4 5 5 5 5 3 3 3
10 10 9 10 9 10 10 10 11 12 10 11 10 10 9 10 10 10 10 11 11 11 10 9 9 9 9 9 9 9 8 8 7 8 7 7 7 7 7 7 7 7 7 7 7 7 7 6 6 5 5 5 5 5 5 4 4 5 4 3 4 4 6 6 5 5 4 5 5 5 6 6 5 5 5 5 5 5 5 3 2 1 3 2 3
10 10 10 10 10 10 10 11 11 10 10 9 10 10 9 10 10 9 10 10 10 10 10 10 9 9 9 9 9 8 8 9 8 8 7 7 7 6 6 6 6 6 6 6 7 7 6 6 6 6 6 5 5 5 5 4 4 4 4 4 6 8 8 7 5 4 6 6 6 6 5 6 6 5 5 4 5 4 3 3 3 3 2 2 2
10 10 10 11 10 10 9 9 10 10 10 9 10 10 10 10 10 10 10 10 10 10 9 10 10 10 10 10 10 9 9 9 8 8 8 7 7 6 7 6 6 6 6 6 5 5 5 6 6 6 6 5 5 5 5 5 4 5 4 5 6 8 7 8 7 7 5 4 5 5 6 5 5 5 3 5 5 4 3 3 3 4 3 3 4
10 10 9 10 10 10 9 10 11 11 11 11 11 10 10 10 10 10 10 10 10 10 10 9 9 9 9 9 9 9 9 9 8 8 8 8 8 8 7 7 7 7 7 6 6 6 5 6 5 6 5 5 6 6 5 6 4 4 6 7 7 7 7 6 5 6 7 5 4 5 6 6 5 5 4 3 3 3 4 3 2 3 3 3 3
Wind_Direction
319 316 312 305 300 297 296 295 299 308 317 310 300 296 298 300 299 300 307 303 297 287 280 280 283 281 280 276 272 266 261 257 252 251 246 243 239 239 238 224 217 220 218 219 213 210 212 216 218 219 218 214 220 223 221 216 213 214 212 212 217 219 222 226 231 240 144 246 158 176 172 149 179 188 183 183 184 192 193 203 199 203 204 208 213
322 313 305 301 300 314 325 323 312 310 306 303 307 317 320 316 311 310 305 305 304 297 299 300 289 293 307 310 318 307 268 253 253 250 247 243 238 231 230 223 220 219 210 219 211 207 214 219 219 219 215 214 215 221 214 214 211 208 212 208 209 215 214 216 226 233 221 147 140 143 150 173 171 188 181 182 187 181 187 192 196 199 203 197 202
314 309 313 326 328 326 320 313 313 310 309 319 316 315 312 309 307 299 298 297 295 294 290 291 289 290 290 301 310 318 326 321 302 275 252 237 240 239 230 223 218 217 214 216 212 204 209 214 219 216 215 213 217 220 216 216 211 208 210 206 209 211 208 212 216 226 224 202 172 162 172 187 180 181 185 188 177 177 182 188 188 189 191 192 203
320 318 318 317 323 322 317 312 305 304 323 321 316 311 306 303 300 293 289 289 287 285 284 283 297 310 310 309 311 313 317 319 316 312 301 280 262 251 239 227 219 216 215 215 212 205 206 211 218 217 209 211 213 216 217 213 213 213 210 208 210 212 209 209 215 221 217 202 194 177 187 170 189 158 166 164 168 179 186 182 177 184 186 189 196
321 320 320 319 318 316 311 308 313 325 318 312 310 312 307 299 293 288 283 281 281 279 289 304 305 310 310 307 307 308 306 308 307 306 303 296 282 270 253 233 221 217 216 216 212 209 208 208 213 210 207 208 210 212 215 211 211 213 214 210 208 211 212 207 213 217 213 207 184 192 163 174 164 156 163 161 170 162 165 176 182 182 183 184 172
320 320 319 316 315 314 315 319 320 316 314 309 306 302 298 294 288 282 282 281 288 311 310 305 305 300 300 301 297 293 294 295 296 296 296 295 288 272 261 247 233 223 222 220 219 213 210 208 208 202 206 206 206 207 206 211 211 210 215 212 209 210 210 208 208 211 213 212 182 158 178 166 152 165 178 169 163 163 166 170 159 175 169 153 154
323 320 318 317 317 317 317 315 313 310 308 306 303 302 303 302 293 287 291 308 319 312 308 301 298 300 295 293 293 289 287 285 285 284 286 286 284 280 273 261 250 239 229 225 221 218 214 212 207 199 202 207 208 199 198 204 207 211 211 209 207 208 208 208 203 203 204 203 173 174 172 190 173 172 177 171 174 176 164 160 183 191 186 180 155
322 321 321 320 319 318 316 314 311 309 307 307 309 310 310 311 312 311 313 308 310 308 304 300 296 290 287 286 284 283 281 281 278 277 275 273 272 271 267 260 252 243 237 227 222 218 216 213 212 208 206 210 207 200 193 196 201 208 210 204 200 200 204 206 204 198 198 198 174 176 178 170 159 75 118 137 130 189 195 185 185 179 145 173 131
324 324 323 321 321 320 318 316 314 314 313 311 309 308 307 306 306 306 306 303 300 301 293 289 289 287 285 279 278 274 273 271 268 269 272 267 259 261 262 257 250 249 241 236 227 222 218 216 214 213 211 213 213 204 194 191 190 201 205 199 200 198 199 202 200 198 196 193 172 169 169 171 177 164 166 179 193 197 176 158 170 169 152 143 165
327 325 323 322 322 323 322 320 320 318 313 311 310 307 305 303 301 301 301 299 298 295 291 284 279 280 285 284 278 274 266 260 263 264 262 262 257 253 253 251 246 243 243 241 236 226 221 216 217 207 213 216 217 214 203 195 193 194 190 189 193 196 200 197 194 193 192 192 173 167 172 185 182 184 185 200 192 126 143 174 187 165 145 136 161
327 326 323 324 325 324 322 320 318 315 314 311 309 306 304 301 301 300 298 296 294 292 287 284 281 278 278 279 281 278 273 267 270 268 265 260 257 250 240 240 236 238 237 235 237 228 225 221 222 223 222 224 222 221 215 201 197 195 185 184 189 190 191 195 195 189 187 190 179 172 180 187 193 187 195 181 177 182 181 179 165 157 166 173 197
326 324 323 324 323 321 319 318 316 315 315 313 311 310 308 305 302 298 297 294 291 290 286 281 279 277 273 271 270 271 271 273 273 272 268 261 254 249 244 242 238 235 233 232 233 229 221 219 221 219 218 219 218 219 218 212 203 193 185 185 193 198 198 191 189 189 188 187 182 185 184 193 186 184 181 173 181 185 175 165 176 179 178 192 194
327 325 326 324 322 321 320 319 318 316 314 312 309 306 304 301 299 298 294 292 292 288 288 288 284 278 274 273 271 269 268 272 272 270 265 260 254 248 242 235 233 235 233 230 230 228 221 216 221 217 218 218 214 213 212 211 204 196 186 184 191 203 211 210 201 190 187 188 188 189 192 186 182 191 185 179 171 174 176 180 187 190 191 196 199
327 326 325 324 323 322 321 319 317 316 313 312 310 307 304 301 298 295 292 292 290 288 285 283 282 279 274 272 270 272 267 270 270 266 262 256 251 246 236 235 234 235 235 231 228 226 220 216 217 219 215 214 211 206 205 206 202 196 191 187 187 200 212 217 218 209 193 192 195 199 195 179 186 187 179 162 166 182 185 189 182 179 193 206 185
328 328 326 325 323 323 322 321 318 316 314 312 310 307 304 300 298 298 295 293 289 285 284 283 277 274 270 267 265 265 263 266 269 266 264 258 251 245 234 232 232 233 232 230 227 224 221 219 217 217 210 204 205 201 198 200 198 196 193 198 193 194 204 213 212 211 209 202 201 197 167 183 188 173 172 180 183 185 184 185 184 188 163 77 59
329 328 326 325 325 325 324 321 317 314 313 312 309 307 306 304 303 301 295 291 286 282 281 277 276 274 268 263 261 263 263 266 267 266 264 261 258 251 243 235 230 228 228 228 226 225 223 218 216 214 207 202 204 206 204 199 197 194 195 195 195 197 207 215 224 226 219 209 175 153 161 180 179 171 177 180 184 161 102 72 84 102 127 148 144
331 329 326 325 324 323 321 316 314 313 311 311 309 308 308 306 300 295 292 290 289 286 281 276 273 273 275 271 266 264 261 266 274 277 273 269 263 247 240 229 220 218 221 221 221 220 217 212 208 210 202 203 201 203 204 204 197 199 195 194 195 193 213 216 222 227 230 231 227 208 182 181 181 181 182 178 171 155 138 136 160 155 149 160 170
329 327 326 325 323 320 316 316 314 311 313 312 311 308 303 296 294 296 292 291 290 289 288 286 279 272 270 274 261 261 275 281 285 293 303 301 296 269 242 220 212 220 217 215 213 212 214 211 208 202 202 205 206 208 205 199 194 199 196 193 194 204 216 203 207 225 232 230 227 225 219 203 181 180 182 182 173 159 161 181 177 158 175 182 181
329 326 324 323 320 318 318 316 315 314 314 312 310 307 305 304 298 291 291 288 286 286 284 283 287 284 282 286 296 291 271 279 294 321 323 324 329 352 329 222 214 201 194 199 196 201 208 213 209 206 206 209 210 209 206 201 194 197 198 195 202 207 212 184 190 191 195 209 228 226 227 220 202 176 178 180 174 179 183 180 160 170 187 189 153
325 321 319 320 319 318 317 317 315 313 312 310 308 306 302 296 298 300 297 295 294 296 298 302 298 298 299 305 308 310 299 292 300 314 329 321 317 314 313 309 276 224 210 210 200 204 205 207 217 214 214 215 214 210 209 208 198 197 196 202 205 217 200 182 186 181 193 192 197 197 210 205 205 177 175 176 179 183 186 177 173 181 186 177 172
324 322 320 319 318 317 315 315 313 312 310 309 306 303 301 300 302 304 305 304 301 303 307 305 303 300 301 299 300 299 297 296 294 304 322 324 315 312 221 206 231 275 299 256 221 209 207 209 202 219 220 217 213 216 215 216 207 195 200 204 206 211 185 190 203 207 190 188 184 189 187 181 178 173 176 177 176 179 181 176 181 183 179 177 180
324 323 322 320 317 316 314 314 313 311 311 311 311 309 306 305 305 307 307 307 306 305 303 302 297 295 294 291 287 287 289 289 289 292 308 313 307 305 299 225 198 202 227 243 254 265 235 209 197 214 223 227 224 221 222 220 216 203 201 204 211 207 193 188 183 189 183 180 176 176 181 179 176 175 173 171 169 169 170 169 174 177 179 186 180
324 322 320 318 317 316 315 316 315 315 312 310 308 309 309 309 309 308 307 307 306 305 305 303 303 304 306 303 298 292 287 287 284 284 303 308 300 289 283 279 264 248 217 227 226 229 231 240 227 219 215 219 225 228 225 222 222 218 210 206 202 199 190 173 176 181 175 177 176 181 180 174 164 161 149 130 111 106 101 91 96 100 82 52 42
323 321 320 318 317 317 316 315 314 312 311 312 312 308 308 310 309 308 308 310 308 309 308 309 309 308 310 310 307 299 295 287 284 292 297 299 300 286 274 270 265 244 227 233 236 224 223 217 227 246 242 232 227 227 230 226 222 222 216 209 203 196 191 171 175 177 173 171 177 174 168 161 146 140 125 108 101 85 81 78 74 82 81 70 64
324 322 321 320 318 317 315 315 314 312 313 313 312 310 308 310 311 311 310 307 304 304 303 305 303 304 305 302 299 298 297 295 289 293 297 298 301 299 291 277 272 268 264 248 229 221 222 235 243 246 245 247 249 244 236 229 223 217 215 209 203 193 193 172 175 166 168 174 174 159 138 117 116 111 113 115 113 96 89 65 61 76 74 80 62
324 323 321 319 318 317 316 314 313 313 314 312 306 302 301 308 308 309 312 306 304 304 305 306 304 302 297 292 297 298 300 301 304 298 293 295 293 291 292 291 279 267 257 249 248 250 248 248 249 249 246 244 243 240 235 225 226 225 221 206 198 193 175 169 165 171 170 165 152 142 131 112 105 112 120 129 125 130 127 119 114 104 108 111 94
323 323 321 320 318 319 319 320 321 321 320 315 310 305 307 303 303 302 298 304 308 307 307 307 306 304 298 297 296 300 292 304 305 295 287 286 288 287 305 307 297 279 258 251 257 261 263 261 248 240 230 242 248 229 203 196 194 195 204 192 157 138 152 163 172 169 158 134 121 107 115 109 114 120 135 128 118 119 126 129 119 124 117 110 110
326 323 320 319 318 319 318 315 317 321 321 321 316 314 310 306 306 306 308 309 305 302 300 300 302 297 301 308 319 328 333 315 311 305 302 287 305 5 335 347 356 22 52 61 59 51 64 43 19 52 85 68 68 60 60 67 94 98 104 111 118 118 109 95 79 81 85 108 111 110 104 124 126 130 120 115 120 120 129 127 129 127 129 124 101
324 321 320 320 319 319 318 319 321 319 319 320 319 312 308 311 311 307 301 259 268 278 284 304 312 321 322 327 334 335 339 337 309 357 23 33 36 29 6 4 11 21 72 88 80 65 62 52 59 70 79 98 78 79 79 86 71 89 106 105 107 111 115 128 125 120 128 123 128 131 132 123 117 116 118 112 114 118 114 106 115 128 129 91 126
326 323 323 322 320 322 324 324 323 322 319 321 324 324 319 326 328 321 311 329 336 341 348 345 346 340 335 331 326 318 321 310 18 43 44 43 44 43 52 64 77 84 81 75 73 67 56 67 54 74 87 93 95 91 96 97 96 89 77 92 98 99 99 101 112 123 123 127 133 132 134 131 129 135 127 125 113 102 116 131 135 140 128 127 128
325 323 324 325 323 323 324 323 324 322 320 321 322 323 325 329 332 338 344 344 346 351 359 358 357 358 355 339 336 324 354 32 52 52 50 48 47 45 46 45 52 79 91 77 47 54 62 71 55 60 61 77 87 93 97 96 97 95 85 78 72 94 98 103 113 120 122 125 129 132 137 140 141 140 137 133 130 116 89 79 113 119 127 133 131
325 323 321 320 322 324 323 321 321 323 323 322 322 326 329 330 330 334 342 346 349 356 2 3 3 4 3 14 37 354 39 55 58 55 52 54 52 46 42 43 57 72 81 84 76 52 56 74 70 58 67 74 70 76 83 96 95 104 109 101 88 84 106 110 123 120 125 126 128 132 134 135 135 133 130 128 123 122 123 123 120 119 105 101 122
325 322 320 321 322 322 324 324 324 326 324 325 326 330 330 331 331 326 331 338 344 357 5 4 5 8 7 20 42 45 45 45 46 46 49 51 54 54 52 48 45 54 64 62 80 73 60 68 73 61 67 81 72 78 80 83 89 82 85 101 106 95 92 105 114 110 119 132 129 129 130 126 125 121 121 128 130 129 129 121 113 109 117 114 112
323 321 322 322 323 323 325 323 326 325 322 321 323 326 327 327 324 323 330 337 345 352 358 0 2 9 10 16 30 33 33 32 31 33 37 47 54 60 64 57 55 54 63 63 64 73 66 72 70 69 67 72 69 74 77 77 79 89 85 80 89 95 98 107 109 115 115 126 126 124 126 130 134 130 126 114 106 116 122 129 133 132 132 138 137
326 324 324 326 326 323 322 325 326 324 324 329 330 332 330 332 332 341 343 345 344 349 347 346 354 2 12 10 23 30 34 34 35 36 35 43 59 66 57 44 38 24 36 35 47 55 61 67 78 70 71 75 69 76 84 84 89 91 101 101 96 99 104 103 108 113 114 114 119 124 132 135 136 134 138 137 134 129 133 136 140 136 134 131 131
330 328 327 329 330 327 325 326 326 328 332 330 329 327 327 334 345 346 345 346 349 349 347 350 347 346 8 16 17 23 29 33 35 38 40 42 41 46 57 44 48 38 43 34 43 52 62 58 66 74 77 75 79 78 78 85 84 91 95 110 112 107 107 112 113 108 106 113 119 126 121 113 123 123 108 110 129 135 140 138 133 126 129 136 142
332 331 329 330 328 325 325 326 329 332 331 330 329 333 331 345 343 346 348 351 351 353 349 344 350 355 4 13 11 8 19 28 34 36 38 40 43 46 51 44 50 47 46 38 37 48 59 54 55 68 69 83 78 82 84 88 92 95 92 87 103 106 102 105 111 112 118 116 118 123 127 130 132 138 134 126 115 118 124 122 121 126 131 133 128
332 329 328 327 327 327 329 331 333 334 337 334 334 334 335 349 347 348 352 355 356 355 352 356 2 358 360 357 2 7 6 16 25 30 27 29 29 32 34 35 38 48 49 44 42 47 60 51 52 65 70 83 89 88 90 87 88 94 101 97 99 110 120 114 110 105 109 119 124 126 127 129 133 133 131 132 141 139 134 138 136 129 122 140 140
334 333 330 331 333 332 330 334 338 341 339 339 339 340 344 353 350 354 352 355 353 356 357 357 3 359 357 354 359 2 12 22 20 18 20 20 21 21 24 29 31 35 38 42 43 49 57 58 57 67 75 82 89 90 96 104 102 104 113 114 107 106 111 113 118 118 121 123 119 120 123 126 124 123 129 128 132 139 141 142 143 141 147 159 170
334 333 330 335 336 337 338 341 343 341 342 341 342 339 350 355 350 357 349 351 359 356 359 4 7 360 356 7 12 11 25 24 21 11 14 19 19 14 16 17 23 26 22 27 31 38 50 58 60 69 70 67 81 90 89 103 107 110 105 109 118 114 114 117 126 128 130 128 127 129 129 130 124 115 108 127 138 144 146 152 155 157 151 149 143
335 331 333 336 340 339 340 347 346 346 342 340 337 341 359 356 351 356 353 351 355 359 4 6 6 1 6 19 27 33 27 26 17 17 18 15 11 9 13 15 13 14 13 21 22 30 38 48 60 64 68 66 69 81 94 98 101 99 100 98 99 109 107 105 113 121 125 128 132 128 127 126 133 131 125 118 125 123 119 123 127 133 135 143 148
335 336 338 337 340 344 346 348 345 342 343 340 343 348 359 354 352 351 2 358 1 1 359 8 8 6 9 19 26 31 33 24 21 16 11 10 13 13 10 10 8 9 7 8 12 21 35 50 52 59 68 68 69 80 91 98 103 111 112 114 116 119 118 123 124 127 129 128 124 128 127 126 118 104 122 130 126 129 132 143 150 146 145 145 142
339 340 339 340 344 348 348 346 341 343 348 346 345 349 358 355 356 352 355 1 3 5 0 3 6 8 13 14 21 24 28 24 23 18 11 3 1 4 10 14 12 5 5 4 12 19 35 50 53 55 61 71 70 70 67 101 117 117 118 121 126 124 128 123 122 123 118 118 117 119 126 128 122 122 130 130 137 137 148 145 147 142 139 138 146
342 343 343 346 346 345 348 348 348 349 347 346 346 343 357 353 360 360 1 1 5 7 4 3 2 3 6 11 18 24 22 19 20 18 9 5 359 2 3 5 6 5 6 2 6 12 31 40 53 54 49 49 47 57 57 57 77 118 135 131 131 133 139 144 149 150 146 134 131 135 131 125 128 132 134 145 144 137 136 134 137 143 141 141 131
347 346 349 349 352 350 351 353 353 350 350 349 350 348 360 0 1 3 6 8 7 8 6 4 5 6 7 9 15 18 18 12 12 11 11 6 359 358 357 358 3 8 9 9 7 8 11 23 36 46 43 33 32 45 47 52 58 73 81 124 147 157 167 168 160 148 140 139 140 140 144 145 147 146 147 152 155 138 145 153 150 137 133 150 161
347 348 352 355 351 353 351 353 352 353 352 352 352 351 360 4 360 4 7 9 11 11 6 5 3 8 10 8 8 13 13 9 8 8 8 7 4 356 355 354 359 4 11 9 8 13 13 16 24 35 41 33 28 32 37 37 50 67 84 88 108 119 126 125 131 137 146 147 145 145 142 137 137 142 141 144 138 130 137 142 151 165 168 171 179
349 351 354 358 358 353 355 353 354 357 356 355 353 353 360 3 1 7 11 12 11 11 10 8 7 5 6 8 7 6 8 8 6 5 7 6 1 359 357 355 1 5 7 10 11 14 14 15 14 23 25 24 32 31 28 28 32 39 55 82 102 103 113 120 123 126 132 132 135 136 140 140 138 131 126 124 129 136 142 155 166 162 151 152 168
351 354 354 359 360 2 359 357 358 359 0 359 355 354 359 4 6 9 10 11 11 10 6 6 8 7 6 7 6 5 4 3 5 3 4 4 0 359 360 4 8 7 7 12 13 13 14 12 14 14 20 23 26 25 18 22 29 37 40 52 75 99 107 106 107 104 106 106 106 121 129 131 131 135 142 147 151 149 143 155 141 124 151 162 168
354 357 358 359 5 5 4 1 0 360 359 358 359 360 3 8 7 8 10 14 12 11 8 4 7 6 5 3 2 0 2 1 2 0 2 359 355 356 359 2 3 4 3 8 11 10 5 5 10 15 17 16 15 17 15 20 28 35 44 50 73 89 91 94 96 101 104 103 104 102 102 114 131 141 145 146 150 150 137 130 150 158 160 164 177
351 355 360 2 4 6 5 7 5 2 0 2 6 6 6 8 8 5 7 9 11 10 11 9 11 9 6 1 2 1 1 360 358 357 353 351 353 352 356 356 2 10 17 11 5 1 3 5 7 9 13 14 14 17 17 23 23 38 46 63 80 86 91 92 94 97 98 105 112 116 119 119 120 126 134 138 138 138 143 156 161 165 168 181 201
353 354 355 358 359 359 5 11 11 9 7 5 6 9 8 9 9 5 7 9 7 5 8 7 7 8 8 4 1 359 359 1 359 358 355 358 356 353 351 0 6 9 9 10 10 12 16 14 13 12 11 14 16 20 25 34 37 50 68 78 80 87 92 97 98 100 105 107 119 122 119 125 123 117 115 116 120 138 169 165 163 174 186 196 210